Location: Lanchy
(49.8266°N, 3.0756°E)
Time: 14:30:28
(UTC+00:00)

Daily predictions for brighter satellites

Satellite Brightness Start Highest point End
(mag) Time Altitude Azimuth Time Altitude Azimuth Time Altitude Azimuth
CSL-04 Rocket 4.4 19:47:34 10° S 19:52:59 57° W 19:58:22 10° NNW
Cosmos 1833 Rocket 2.7 19:47:42 10° SSW 19:53:17 78° ESE 19:58:56 10° NNE
CZ-4B DEB 4.4 19:47:56 10° SSE 19:53:27 84° WSW 19:59:01 10° NNW
ATLAS 2AS CENTAUR R/B 2.9 19:47:33 10° SW 19:54:32 84° NW 20:01:24 10° NE
CZ-4B R/B 3.3 19:50:16 10° SSE 19:55:55 77° ENE 20:01:34 10° NNW
Cosmos 1892 Rocket 4.3 19:53:28 10° N 19:57:28 35° ENE 20:01:25 10° SE
Okean-O 3.3 19:53:50 10° SE 19:57:54 40° ENE 20:02:01 10° N
Cosmos 2360 Rocket 4.4 19:56:43 10° N 19:59:42 14° NNE 20:02:40 10° ENE
USA 305 3.3 19:56:57 10° WNW 20:00:57 52° NNE 20:04:43 10° E
Gbstr 26 Del rocket 3.3 19:56:28 10° WNW 20:01:53 85° SSW 20:06:17 10° ESE
Cosmos 1455 Rocket 3.9 19:58:08 10° SSE 20:02:02 31° E 20:05:56 10° NNE
SL-4 R/B 2.9 19:58:59 10° W 20:02:28 34° SSW 20:05:59 10° SSE
Spot 2 Rocket 3.8 19:58:44 10° SE 20:03:36 53° ENE 20:08:29 10° N
MetOp-B 4.2 19:58:30 10° SSE 20:03:52 90° ENE 20:09:16 10° NNW
Cosmos 2016 Rocket 4.5 20:01:19 10° SSE 20:07:08 42° E 20:12:56 10° NNE
Cosmos 2173 Rocket 4.0 20:02:54 10° S 20:08:59 70° E 20:15:10 10° NNE
Okean 1 Rocket 3.0 20:04:40 10° S 20:09:01 69° E 20:13:26 10° NNE
ADEOS 3.6 20:04:25 10° SSE 20:09:39 89° E 20:14:54 10° NNW
Helios 1A Rocket 2.4 20:11:58 10° NNE 20:15:08 75° WNW 20:18:16 10° SSW
Meteor 1-27 4.5 20:17:21 10° SSE 20:22:46 50° E 20:28:10 10° NNE
ERS-1 Rocket 3.7 20:19:40 10° S 20:24:34 53° W 20:29:30 10° NNW
SKYMED 3 4.3 20:20:50 10° NNE 20:24:47 89° E 20:28:44 10° SSW
SJ 16-02 4.3 20:25:53 10° WNW 20:26:55 11° W 20:27:57 10° WSW
ATLAS 3B R/B 3.3 20:20:08 10° NW 20:27:50 64° WSW 20:34:58 10° SSE
Cosmos 2369 4.2 20:22:39 10° NNW 20:28:15 51° NE 20:33:06 14° SE
Cosmos 2322 Rocket 4.1 20:24:28 10° N 20:28:30 19° NE 20:32:31 10° E
DEBRIS 3.0 20:28:20 10° SW 20:31:02 58° SSE 20:38:10 10° ENE
Cosmos 1741 Rocket 4.1 20:26:14 10° NNW 20:31:34 80° WSW 20:36:43 11° SSE
Cosmos 1452 Rocket 3.5 20:26:33 10° S 20:31:41 61° ESE 20:36:51 10° NNE
Cosmos 2082 Rocket 2.8 20:26:34 10° S 20:31:42 36° ESE 20:36:51 10° NE
SL-08 R/B 3.3 20:28:16 10° NNE 20:33:10 85° ESE 20:37:57 10° SSW
Sich 1 Rocket 3.8 20:32:17 10° SSW 20:36:37 72° W 20:41:01 10° N
Cosmos 968 Rocket 4.4 20:31:59 10° NW 20:36:58 45° WSW 20:41:56 10° S
Cosmos 1331 Rocket 4.0 20:33:19 10° SSW 20:38:35 87° WNW 20:43:49 10° NNE
Cosmos 1802 Rocket 4.0 20:32:25 10° S 20:38:37 81° E 20:44:47 10° NNE
YAOGAN 11 4.1 20:35:11 10° NNE 20:39:36 67° ESE 20:44:00 10° S
CZ-4B R/B 3.8 20:36:55 15° SE 20:40:34 47° ENE 20:45:11 10° N
Cosmos 1302 Rocket 4.1 20:42:58 10° S 20:47:57 52° ESE 20:52:59 10° NNE
Cosmos 1697 Rocket 4.1 20:45:02 10° NW 20:50:01 33° WSW 20:54:58 10° SSW
CZ-2C R/B 3.2 20:49:47 21° ESE 20:50:49 27° ENE 20:53:15 10° N
Cosmos 2151 4.0 20:47:55 10° N 20:51:35 30° ENE 20:53:43 19° ESE
Meteor 2-12 Rocket 4.4 20:46:08 10° N 20:52:15 83° E 20:57:39 14° SSE
Terra 3.3 20:48:43 10° SSW 20:52:55 32° W 20:57:10 10° NNW
NOSS 3-3 (A) 4.2 20:49:22 10° S 20:54:02 36° ESE 20:59:27 10° NE
SL-16 R/B 3.1 20:51:07 10° NNW 20:56:25 39° NE 21:00:34 16° ESE
COSMOS 2406 4.1 20:54:43 18° SSE 20:57:52 28° ESE 21:02:41 10° NE
Cosmos 1743 3.1 20:58:06 10° NNW 21:00:59 42° W 21:03:16 14° SSW
Cosmos 2228 2.8 20:58:22 12° S 21:02:09 80° E 21:06:17 10° NNE
USA 186 2.7 21:00:42 15° SSW 21:02:34 34° W 21:05:05 10° NNW
USA 306 3.8 21:00:01 10° SSW 21:00:59 16° SSW 21:00:59 16° SSW
Cosmos 1782 2.6 21:00:48 11° SSW 21:04:09 77° W 21:07:41 10° N
SPOT 3 Rocket 3.5 21:02:11 18° SSE 21:06:06 89° E 21:11:18 10° NNW
Cosmos 44 Rocket 3.6 21:05:31 10° SW 21:10:36 75° NW 21:15:50 10° NE
Cosmos 2333 Rocket 2.9 21:06:25 10° NNW 21:11:52 44° NE 21:15:41 19° ESE
Cosmos 1626 Rocket 3.6 21:07:56 10° N 21:12:16 66° ENE 21:14:41 25° SSE
CZ-4B R/B 2.6 21:13:30 25° S 21:15:17 69° WSW 21:18:42 10° NNW
Cosmos 1607 3.8 21:09:12 10° SSW 21:15:18 74° SE 21:21:35 10° NE
Cosmos 1980 Rocket 3.1 21:13:24 10° NW 21:18:46 43° WSW 21:23:04 15° S
Okean O Rocket 3.0 21:16:06 10° SSW 21:19:58 32° W 21:23:51 10° NNW
ISS -3.9 21:17:29 10° WSW 21:20:48 65° SSE 21:24:08 10° ENE
Cosmos 2233 Rocket 4.1 21:15:17 10° SSW 21:21:30 79° W 21:27:42 10° N
Helios 1B rocket 4.1 21:21:08 14° E 21:22:18 16° ENE 21:24:33 10° NNE
NOSS 3-3 (C) 3.9 21:17:30 10° SSW 21:22:28 47° ESE 21:28:19 10° NE
USA 305 2.6 21:22:25 10° WNW 21:26:26 59° SW 21:27:30 39° SSE
Cosmos 1933 3.5 21:27:23 35° SE 21:28:29 46° E 21:32:08 10° NNE
IRS-1C Rocket 4.2 21:25:22 22° S 21:28:52 75° WSW 21:34:11 10° NNW
Geosat 4.4 21:25:50 10° NE 21:30:35 42° ESE 21:32:49 27° SSE
Tsikada Rocket 4.4 21:25:26 10° NNW 21:31:29 59° W 21:36:32 15° SSW
Okean-O 4.4 21:30:41 10° SSW 21:34:19 25° W 21:37:58 10° NW
NOSS 3-4 (A) 4.2 21:29:58 10° NW 21:36:21 56° NE 21:42:12 17° ESE
Ariane Rocket 3.2 21:33:20 23° S 21:36:30 65° WSW 21:41:33 10° NNW
Cosmos 2098 Rocket 3.9 21:34:55 29° SE 21:36:48 41° E 21:41:06 10° NNE
NOSS 3-4 (C) 4.2 21:30:35 10° NW 21:36:58 56° NE 21:42:51 17° ESE
CZ-4C R/B 2.8 21:33:37 10° WSW 21:37:55 49° NW 21:43:28 10° NE
Nadezhda 4 Rocket 4.3 21:32:54 10° N 21:38:52 51° ENE 21:42:00 27° SE
Cosmos 2360 Rocket 2.9 21:39:44 10° NNW 21:45:13 46° NE 21:48:24 23° ESE
Cosmos 2084 Rocket 3.9 21:41:41 10° NW 21:45:43 47° SW 21:47:04 34° S
ATLAS 2AS CENTAUR R/B 4.5 21:40:09 10° W 21:46:19 34° NNW 21:52:25 10° NE
Gbstr 26 Del rocket 4.2 21:43:42 10° W 21:47:41 26° SW 21:48:34 24° SSW
Cosmos 1461 4.0 21:50:45 23° E 21:50:45 23° E 21:52:45 10° ENE
Cosmos 1437 Rocket 2.3 21:48:46 49° S 21:49:37 80° ESE 21:53:12 10° NNE
Cosmos 1544 Rocket 3.6 21:49:36 25° SSW 21:52:02 74° W 21:56:23 10° N
BREEZE-M R/B 4.5 21:44:23 10° W 21:54:13 84° N 21:59:53 10° E
USA 234 3.9 21:50:32 10° ENE 21:56:17 32° SE 21:57:36 29° SSE
Cosmos 2219 Rocket 3.1 21:56:42 10° NNW 22:02:02 40° NE 22:05:14 22° ESE
DNEPR-1 R/B 4.4 21:59:42 10° NW 22:05:03 74° NE 22:08:22 29° SE
Cosmos 1805 2.6 22:01:48 10° N 22:05:05 87° E 22:05:16 79° SSE
BREEZE-M DEB (TANK) 3.4 22:03:58 10° W 22:04:53 18° W 22:04:53 18° W
Cosmos 1777 Rocket 4.1 22:03:55 10° NNW 22:09:11 70° ENE 22:11:10 38° SE
Cosmos 1992 Rocket 4.4 22:05:20 11° SW 22:10:13 61° WNW 22:15:24 10° NNE
Cosmos 1503 Rocket 4.3 22:05:10 10° NNW 22:10:19 56° ENE 22:12:20 34° ESE
Cosmos 909 Rocket 4.2 22:04:30 10° SW 22:10:49 74° NW 22:17:23 10° NE
Cosmos 1766 4.5 22:09:51 10° NNE 22:12:23 22° ENE 22:12:23 22° ENE
Cosmos 2322 Rocket 2.2 22:07:51 10° NNW 22:13:32 74° ENE 22:15:56 36° SE
Cosmos 1536 4.2 22:12:29 10° NNE 22:15:29 23° ENE 22:15:51 23° E
Cosmos 2082 Rocket 3.2 22:10:09 10° SW 22:15:38 47° NW 22:21:10 10° NNE
Cosmos 1464 Rocket 3.9 22:18:25 31° S 22:21:32 89° ESE 22:27:45 10° N
Cosmos 1486 Rocket 3.9 22:16:58 10° NNW 22:22:15 84° WSW 22:24:02 43° SSE
Cosmos 1825 Rocket 3.4 22:18:21 10° N 22:22:42 89° W 22:23:40 54° S
Cosmos 1375 Rocket 4.5 22:18:44 20° SSW 22:23:23 76° SE 22:29:59 10° NE
Cosmos 1953 Rocket 3.7 22:20:47 10° N 22:25:08 58° ENE 22:25:57 48° ESE
Meteor 1-5 Rocket 4.3 22:20:10 10° NNW 22:25:49 73° W 22:28:14 36° S
Cosmos 2151 4.4 22:24:44 10° NNW 22:28:17 28° W 22:29:47 22° SW
ALOS 2 3.5 22:27:20 32° E 22:28:28 37° ENE 22:32:32 10° N
ARIANE 5 R/B 3.3 22:27:36 37° ESE 22:28:41 45° ENE 22:32:57 10° N
Cosmos 2058 Rocket 3.9 22:28:26 34° E 22:28:44 34° E 22:32:39 10° NNE
COSMOS 2428 4.4 22:24:33 10° NNW 22:29:22 27° NE 22:33:44 12° E
Spot 4 4.4 22:28:39 37° ESE 22:30:03 48° ENE 22:34:40 10° N
Cosmos 220 Rocket 3.7 22:29:24 58° SSW 22:30:10 89° WNW 22:34:17 10° NNE
Cosmos 2278 3.9 22:28:07 10° NW 22:33:45 62° WSW 22:35:41 40° S
CSL-04 DEB 3.9 22:34:56 84° SE 22:35:02 88° ENE 22:38:39 10° NNW
SL-16 R/B 2.8 22:35:14 10° NW 22:40:35 44° WSW 22:42:24 34° SSW
COSMOS 2406 3.8 22:36:39 13° SW 22:41:48 57° NW 22:47:30 10° NNE
Cosmos 1092 Rocket 4.0 22:37:09 10° N 22:43:20 74° E 22:45:38 40° SSE
Helios 1A 3.1 22:39:38 10° N 22:43:31 60° WNW 22:44:22 47° WSW
SAR-Lupe-2 4.5 22:44:30 34° ENE 22:44:30 34° ENE 22:47:28 10° N
PSLV R/B 4.5 22:43:09 10° NNE 22:47:01 33° E 22:47:01 33° E
CZ-2C R/B 3.6 22:45:11 10° NNE 22:49:36 63° ESE 22:50:07 57° SE
ACS3 Solar Sail 4.0 22:49:30 10° ENE 22:50:36 10° E 22:51:42 10° E
Aureole 1 Rocket 4.1 22:45:52 10° NNW 22:51:06 58° ENE 22:53:46 33° SE
Cosmos-2242 2.8 22:51:19 64° ESE 22:51:32 66° E 22:55:39 10° NNE
Okean 1 3.4 22:53:46 52° W 22:53:58 53° WNW 22:57:29 10° N
Helios 1B rocket 2.7 22:55:06 45° W 22:55:06 45° W 22:58:21 10° NNW
Cosmos 2333 Rocket 3.0 22:50:53 10° NW 22:56:06 38° WSW 22:57:41 32° SW
Cosmos 2034 Rocket 4.1 22:53:27 35° SSW 22:56:21 77° W 23:02:44 10° N
Cosmos 1271 Rocket 4.2 22:58:25 22° ENE 22:58:25 22° ENE 23:00:27 10° NE
ISS -3.3 22:54:21 10° W 22:57:24 59° NNW 22:57:24 59° NNW
CZ-2C R/B 3.8 22:56:33 23° ESE 22:58:52 33° ENE 23:03:31 10° N
Cosmos 1707 3.5 23:02:42 34° NNE 23:02:42 34° NNE 23:04:28 10° NNE
Cosmos 1975 3.9 22:58:43 10° N 23:01:57 29° ENE 23:02:05 29° ENE
Cosmos 1833 4.1 23:04:36 48° S 23:06:11 72° ESE 23:11:49 10° NNE
Meteor 2-2 Rocket 4.1 23:09:38 48° S 23:11:20 85° E 23:17:07 10° NNE
Cosmos 468 Rocket 4.3 23:11:08 46° SE 23:11:52 50° ESE 23:16:57 10° NNE
Cosmos 2221 3.3 23:14:13 35° E 23:14:13 35° E 23:18:02 10° NNE
Cosmos 2322 4.2 23:13:25 10° NNW 23:19:02 55° NE 23:21:36 31° ESE
Cosmos 2297 Rocket 4.0 23:18:41 15° ESE 23:19:21 16° E 23:22:33 10° ENE
Cosmos 540 Rocket 3.4 23:18:15 51° SSW 23:19:36 86° WNW 23:24:47 10° NNE
Cosmos 1634 Rocket 3.9 23:22:44 43° SSW 23:24:56 82° W 23:31:10 10° N
Cosmos 1461 3.9 23:24:21 27° W 23:25:43 37° NW 23:29:10 10° NNE
Cosmos 2279 Rocket 4.0 23:25:15 45° S 23:27:17 77° E 23:33:34 10° NNE
NOSS 3-4 (A) 4.2 23:20:50 10° NW 23:27:19 48° WSW 23:29:37 38° SSW
TSX-5 4.2 23:24:35 10° NNW 23:27:09 44° NNE 23:27:09 44° NNE
NOSS 3-4 (C) 4.2 23:21:26 10° NW 23:27:57 48° WSW 23:30:15 38° SSW
Cosmos 1898 Rocket 3.8 23:23:50 10° NNW 23:28:58 62° ENE 23:30:35 41° ESE
Cosmos 2360 Rocket 3.0 23:23:57 10° NW 23:29:05 36° WSW 23:30:08 33° SW
RESURS DK-1 3.2 23:27:32 10° NNW 23:31:20 41° NE 23:32:11 36° E
USA 290 3.7 23:35:47 31° NW 23:35:47 31° NW 23:38:32 10° N
NOSS 0 Rocket 4.3 23:33:35 10° NNW 23:39:42 58° NE 23:43:09 26° ESE
USA 234 3.2 23:33:15 10° ENE 23:39:51 87° SSE 23:44:54 18° WSW
Meteor 1-11 Rocket 4.0 23:36:18 10° N 23:42:00 63° ENE 23:43:52 41° SE
Cosmos 1763 Rocket 4.1 23:43:38 31° WSW 23:45:52 50° WNW 23:51:01 10° NNE
Cosmos 2219 Rocket 2.7 23:40:43 10° NW 23:46:00 42° WSW 23:46:54 39° SW
ARGOS Delta rocket 4.2 23:41:11 10° N 23:46:09 64° WNW 23:47:35 45° SW
Cosmos 1812 Rocket 3.6 23:48:46 60° ESE 23:49:05 62° E 23:53:27 10° NNE
BREEZE-M DEB (TANK) 3.9 23:36:26 10° WSW 23:50:41 83° SSE 23:54:20 10° ENE
Cosmos 1536 4.0 23:47:30 10° NNW 23:50:22 28° W 23:50:22 28° W
Cosmos 1842 4.0 23:55:55 37° NW 23:55:55 37° NW 23:58:19 10° N
Intercosmos 24 4.3 23:51:19 10° N 23:55:35 50° ENE 23:55:56 49° E
Cosmos 1470 3.5 23:52:56 10° NNW 23:55:21 37° NW 23:55:21 37° NW
